sat.trackr.live / text

‹ back to catalog

YAOGAN-35 02B

NORAD 52908 · 2022-068B

PAYLOAD ACTIVE UNKNOWN

§ Identity

Operator
Country
PRC
Launch date
2022-06-23
Launch site
XICLF
Launch vehicle
Mass (kg)
RCS (m²)

External: N2YO · Heavens-Above · Gunter

§ Orbital elements

Epoch: 2026-09-20T23:18:25.817760Z

Period
91.02 min
Inclination
34.9893°
Eccentricity
0.0008471
Mean motion
15.82024897 rev/d
Perigee alt
319.0 km
Apogee alt
330.4 km
Semi-major
6,702.9 km
B*
9.1017e-4
RAAN
131.9826°
Arg perigee
318.3797°
Mean anomaly
41.6290°
Rev number
23,775

§ Raw data

YAOGAN-35 02B1 52908U 22068B   26263.97113215  .00198051  00000+0  91017-3 0  99942 52908  34.9893 131.9826 0008471 318.3797  41.6290 15.82024897237752

JSON: /api/v1/satellites/52908 · /tle

For live sub-satellite position, see the globe view (requires WebGL).

§ Visibility from observer

Set your observer location to see the next 7 days of passes ≥ 10°. The values pass through the URL so the page stays shareable.

No JS? Fill the form by hand. The geolocation button needs JavaScript.